Powrót do katalogu

STARLINK-34460

AktywnyŁącznośćVLEO
NORAD 66099·PAYLOAD·🇺🇸 United States

Wystrzelony Oct 19, 2025 z Vandenberg Space Force Base

Loading…

Następne Przeloty (najbliższe 24 godziny)

TLE

ŚwieżeSource: CelesTrak SupGP

Epoka: Sep 15, 2026, 03:41 UTC

1 66099C 25236P   26258.15395833  .00013656  00000+0  40341-3 0  2581
2 66099  53.1593 302.6724 0001347  90.2183  93.1448 15.34389130    17

Śledź STARLINK-34460 w czasie rzeczywistym z AllMySat

Download on the App Store